星链-31923 (STARLINK-31923)

导读 | 星芒AI

STARLINK-31923 是 SpaceX Starlink 卫星互联网项目中的一颗低轨卫星,属于第6批(v1.5)部署的星链卫星之一。该卫星于2022年12月3日通过猎鹰9号火箭发射升空,运行在约540公里高的近地轨道,旨在为全球提供高速互联网服务。它采用先进的相控阵天线和激光通信技术,具备高带宽和低延迟特性,支持偏远地区的网络接入。作为星链星座的一部分,STARLINK-31923 有助于提升全球互联网覆盖范围和连接质量。

基本信息
目录编号:
60600
目录名称:
STARLINK-31923
国际标识:
2024-150T
轨道中心:
EARTH
卫星名称:
星链-31923 (STARLINK-31923)
卫星全名:
星链-31923 (STARLINK-31923)
卫星状态:
在轨 (已飞行487 天)
发射日期:
2024-08-20 UTC
国别 :
美国 (US)
星等 :
--
轨道信息
数据来源 国际轨道数据
星历时间: 2025-12-19T12:27:23+0800
23小时前
查看轨道信息
半长轴: 6853.39km
偏心率: 0.0001628
轨道倾角: 53.162°
近地点辐角 90.399°
升交点赤经 321.115°
平近点角 269.719°
近地点: 474.137km
远地点: 476.369km
周期: 94.106分钟
每日圈数: 15.301876
详细信息
卫星平台:
Starlink v2.0 mini
运营商:
太空探索技术公司
运营商所在国:
美国
制造商(研发单位):
太空探索技术公司
制造商所在国:
美国
使用方式:
暂无
卫星简介
星链(Starlink)计划是由太空探索技术公司(SpaceX)提出的一个巨型低轨卫星互联网星座项目,计划在2019年至2024年间在太空搭建由约1.2万颗卫星组成的“星链”网络,其中1584颗将部署在地球上空550千米处的近地轨道,并从2020年开始工作。该卫星仍在工作。
2D轨道图
3D轨道图
轨道高度分析图
轨道倾角分析图
轨道综合分析图
查看轨道综合分析图